BEAK

导读

BEAK卫星是由日本(JP)于1998年11月20日08:00发射升空的人造卫星,作为日本航天发展进程中的一颗早期任务卫星,它承载着日本航天探索的技术验证相关目标。作为日本1990年代航天发射活动的组成部分,该卫星为日本后续空间技术积累、轨道运行数据采集提供了实践基础,推动了日本航天领域的技术发展与经验积累,在日本航天探索历程中留下了探索印记。

基本信息
目录编号:
58612
目录名称:
BEAK
国际标识:
1998-067WD
轨道中心:
EARTH
卫星名称:
BEAK
卫星全名:
--
卫星状态:
已陨落 最后检测时间 2024-06-28
发射日期:
1998-11-20 UTC
国别 :
日本 (JP)
星等 :
--
轨道信息
数据来源 国际轨道数据
星历时间: 2024-06-29T04:41:48+0800
轨道信息已过期745天
半长轴: 6551.813km
偏心率: 0.0006733
轨道倾角: 51.611°
近地点辐角 324.825°
升交点赤经 230.879°
平近点角 35.233°
近地点: 169.266km
远地点: 178.09km
周期: 87.963分钟
每日圈数: 16.370449
详细信息
使用方式:
暂无